Time,TemperatureF,DewpointF,PressureIn,WindDirection,WindDirectionDegrees,WindSpeedMPH,WindSpeedGustMPH,Humidity,HourlyPrecipIn,Conditions,Clouds,dailyrainin,SoftwareType,DateUTC
2013-12-10 00:05:00,14.4,5.0,30.23,SW,225,7.0,11.0,65,0.00,,,0.00,weatherlink.com 1.10,2013-12-10 05:05:00,
2013-12-10 00:20:00,14.3,5.0,30.24,West,262,4.0,9.0,66,0.00,,,0.00,weatherlink.com 1.10,2013-12-10 05:20:00,
2013-12-10 00:35:00,14.3,6.0,30.24,SW,225,9.0,10.0,68,0.00,,,0.00,weatherlink.com 1.10,2013-12-10 05:35:00,
2013-12-10 00:50:00,14.3,6.0,30.25,West,261,3.0,9.0,69,0.00,,,0.00,weatherlink.com 1.10,2013-12-10 05:50:00,
2013-12-10 01:05:00,14.2,6.0,30.25,West,266,5.0,7.0,71,0.00,,,0.00,weatherlink.com 1.10,2013-12-10 06:05:00,
2013-12-10 01:20:00,13.9,6.0,30.25,West,276,3.0,8.0,71,0.00,,,0.00,weatherlink.com 1.10,2013-12-10 06:20:00,
2013-12-10 01:35:00,13.4,7.0,30.25,WNW,284,6.0,9.0,74,0.00,,,0.00,weatherlink.com 1.10,2013-12-10 06:35:00,
2013-12-10 01:50:00,12.4,4.0,30.25,WNW,284,7.0,10.0,70,0.00,,,0.00,weatherlink.com 1.10,2013-12-10 06:50:00,
2013-12-10 02:05:00,11.5,4.0,30.25,West,275,7.0,12.0,72,0.00,,,0.00,weatherlink.com 1.10,2013-12-10 07:05:00,
2013-12-10 02:20:00,10.8,4.0,30.25,West,277,3.0,8.0,73,0.00,,,0.00,weatherlink.com 1.10,2013-12-10 07:20:00,
2013-12-10 02:35:00,10.2,4.0,30.25,West,271,4.0,8.0,75,0.00,,,0.00,weatherlink.com 1.10,2013-12-10 07:35:00,
2013-12-10 02:50:00,9.5,3.0,30.24,West,263,5.0,9.0,73,0.00,,,0.00,weatherlink.com 1.10,2013-12-10 07:50:00,
2013-12-10 03:05:00,8.9,2.0,30.24,West,259,3.0,8.0,72,0.00,,,0.00,weatherlink.com 1.10,2013-12-10 08:05:00,
2013-12-10 03:20:00,8.5,2.0,30.23,SW,235,3.0,9.0,73,0.00,,,0.00,weatherlink.com 1.10,2013-12-10 08:20:00,
2013-12-10 03:50:00,7.4,1.0,30.22,WSW,240,3.0,4.0,76,0.00,,,0.00,weatherlink.com 1.10,2013-12-10 08:50:00,
2013-12-10 04:05:00,7.0,2.0,30.23,West,259,3.0,4.0,78,0.00,,,0.00,weatherlink.com 1.10,2013-12-10 09:05:00,
2013-12-10 04:20:00,6.7,2.0,30.22,West,259,2.0,5.0,79,0.00,,,0.00,weatherlink.com 1.10,2013-12-10 09:20:00,
2013-12-10 04:36:00,6.4,1.0,30.22,WSW,241,6.0,8.0,79,0.00,,,0.00,weatherlink.com 1.10,2013-12-10 09:36:00,
2013-12-10 04:51:00,6.0,1.0,30.22,WSW,255,3.0,8.0,78,0.00,,,0.00,weatherlink.com 1.10,2013-12-10 09:51:00,
2013-12-10 05:06:00,5.6,0.0,30.22,WSW,246,5.0,9.0,78,0.00,,,0.00,weatherlink.com 1.10,2013-12-10 10:06:00,
2013-12-10 05:21:00,5.3,0.0,30.22,SW,232,6.0,11.0,77,0.00,,,0.00,weatherlink.com 1.10,2013-12-10 10:21:00,
2013-12-10 05:36:00,4.8,-1.0,30.22,West,262,3.0,10.0,76,0.00,,,0.00,weatherlink.com 1.10,2013-12-10 10:36:00,
2013-12-10 05:51:00,4.4,-2.0,30.21,SW,228,5.0,8.0,76,0.00,,,0.00,weatherlink.com 1.10,2013-12-10 10:51:00,
2013-12-10 06:06:00,4.1,-2.0,30.21,SW,222,3.0,8.0,76,0.00,,,0.00,weatherlink.com 1.10,2013-12-10 11:06:00,
2013-12-10 06:21:00,3.8,-2.0,30.20,SW,224,1.0,4.0,77,0.00,,,0.00,weatherlink.com 1.10,2013-12-10 11:21:00,
2013-12-10 06:36:00,3.2,-2.0,30.20,SW,224,1.0,3.0,78,0.00,,,0.00,weatherlink.com 1.10,2013-12-10 11:36:00,
2013-12-10 06:51:00,2.8,-2.0,30.20,SW,226,2.0,5.0,79,0.00,,,0.00,weatherlink.com 1.10,2013-12-10 11:51:00,
2013-12-10 07:06:00,2.6,-3.0,30.19,SSE,161,1.0,4.0,78,0.00,,,0.00,weatherlink.com 1.10,2013-12-10 12:06:00,
2013-12-10 07:21:00,2.4,-3.0,30.19,SSW,205,2.0,4.0,78,0.00,,,0.00,weatherlink.com 1.10,2013-12-10 12:21:00,
2013-12-10 07:36:00,2.4,-3.0,30.18,SSW,193,2.0,6.0,79,0.00,,,0.00,weatherlink.com 1.10,2013-12-10 12:36:00,
2013-12-10 08:07:00,2.5,-2.0,30.18,SSE,147,3.0,6.0,80,0.00,,,0.00,weatherlink.com 1.10,2013-12-10 13:07:00,
2013-12-10 08:22:00,2.9,-2.0,30.18,SE,136,3.0,6.0,81,0.00,,,0.00,weatherlink.com 1.10,2013-12-10 13:22:00,
2013-12-10 08:37:00,4.1,-1.0,30.16,SSE,165,4.0,9.0,80,0.00,,,0.00,weatherlink.com 1.10,2013-12-10 13:37:00,
2013-12-10 08:52:00,5.2,0.0,30.16,SSE,165,7.0,12.0,78,0.00,,,0.00,weatherlink.com 1.10,2013-12-10 13:52:00,
2013-12-10 09:07:00,6.5,0.0,30.16,SSW,211,8.0,12.0,75,0.00,,,0.00,weatherlink.com 1.10,2013-12-10 14:07:00,
2013-12-10 09:22:00,8.0,2.0,30.16,South,176,7.0,13.0,75,0.00,,,0.00,weatherlink.com 1.10,2013-12-10 14:22:00,
2013-12-10 09:37:00,8.9,2.0,30.17,SW,228,13.0,15.0,74,0.00,,,0.00,weatherlink.com 1.10,2013-12-10 14:37:00,
2013-12-10 09:52:00,10.3,3.0,30.16,SW,224,9.0,18.0,71,0.00,,,0.00,weatherlink.com 1.10,2013-12-10 14:52:00,
2013-12-10 10:07:00,11.2,3.0,30.16,WSW,239,14.0,17.0,70,0.00,,,0.00,weatherlink.com 1.10,2013-12-10 15:07:00,
2013-12-10 10:22:00,11.9,4.0,30.14,SSW,200,17.0,18.0,70,0.00,,,0.00,weatherlink.com 1.10,2013-12-10 15:22:00,
2013-12-10 10:37:00,12.9,4.0,30.14,SSW,193,10.0,19.0,68,0.00,,,0.00,weatherlink.com 1.10,2013-12-10 15:37:00,
2013-12-10 10:52:00,14.4,5.0,30.13,South,181,14.0,25.0,65,0.00,,,0.00,weatherlink.com 1.10,2013-12-10 15:52:00,
2013-12-10 11:08:00,15.5,5.0,30.14,SW,218,13.0,23.0,62,0.00,,,0.00,weatherlink.com 1.10,2013-12-10 16:08:00,
2013-12-10 11:23:00,16.2,5.0,30.14,SSW,204,11.0,24.0,62,0.00,,,0.00,weatherlink.com 1.10,2013-12-10 16:23:00,
2013-12-10 11:38:00,17.3,5.0,30.14,South,187,10.0,28.0,59,0.00,,,0.00,weatherlink.com 1.10,2013-12-10 16:38:00,
2013-12-10 11:53:00,17.8,6.0,30.13,WSW,245,14.0,28.0,60,0.00,,,0.00,weatherlink.com 1.10,2013-12-10 16:53:00,
2013-12-10 12:08:00,18.8,8.0,30.12,WSW,238,24.0,27.0,62,0.00,,,0.00,weatherlink.com 1.10,2013-12-10 17:08:00,
2013-12-10 12:23:00,19.2,9.0,30.12,SSW,211,11.0,23.0,64,0.00,,,0.00,weatherlink.com 1.10,2013-12-10 17:23:00,
2013-12-10 12:53:00,20.4,10.0,30.11,West,259,11.0,24.0,65,0.00,,,0.00,weatherlink.com 1.10,2013-12-10 17:53:00,
2013-12-10 13:08:00,20.6,11.0,30.11,SW,222,17.0,26.0,66,0.00,,,0.00,weatherlink.com 1.10,2013-12-10 18:08:00,
2013-12-10 13:38:00,21.6,12.0,30.11,SW,235,18.0,26.0,66,0.00,,,0.00,weatherlink.com 1.10,2013-12-10 18:38:00,
2013-12-10 13:53:00,21.7,12.0,30.11,WSW,246,12.0,24.0,66,0.00,,,0.00,weatherlink.com 1.10,2013-12-10 18:53:00,
2013-12-10 14:08:00,22.3,12.0,30.11,WSW,246,15.0,27.0,66,0.00,,,0.00,weatherlink.com 1.10,2013-12-10 19:08:00,
2013-12-10 14:24:00,22.0,12.0,30.11,SW,222,17.0,24.0,66,0.00,,,0.00,weatherlink.com 1.10,2013-12-10 19:24:00,
2013-12-10 14:39:00,22.4,12.0,30.11,WSW,239,14.0,27.0,65,0.00,,,0.00,weatherlink.com 1.10,2013-12-10 19:39:00,
2013-12-10 14:54:00,22.8,13.0,30.12,SW,235,10.0,27.0,67,0.00,,,0.00,weatherlink.com 1.10,2013-12-10 19:54:00,
2013-12-10 15:09:00,23.1,13.0,30.13,SW,233,17.0,25.0,65,0.00,,,0.00,weatherlink.com 1.10,2013-12-10 20:09:00,
2013-12-10 15:24:00,23.1,13.0,30.13,WSW,243,20.0,24.0,65,0.00,,,0.00,weatherlink.com 1.10,2013-12-10 20:24:00,
2013-12-10 15:39:00,22.9,13.0,30.15,SW,226,15.0,21.0,65,0.00,,,0.00,weatherlink.com 1.10,2013-12-10 20:39:00,
2013-12-10 15:54:00,23.1,13.0,30.15,WSW,248,14.0,17.0,65,0.00,,,0.00,weatherlink.com 1.10,2013-12-10 20:54:00,
2013-12-10 16:09:00,22.9,12.0,30.16,SW,218,12.0,28.0,64,0.00,,,0.00,weatherlink.com 1.10,2013-12-10 21:09:00,
2013-12-10 16:24:00,22.9,13.0,30.17,WNW,285,9.0,17.0,65,0.00,,,0.00,weatherlink.com 1.10,2013-12-10 21:24:00,
2013-12-10 16:39:00,22.7,12.0,30.18,SSW,212,14.0,21.0,64,0.00,,,0.00,weatherlink.com 1.10,2013-12-10 21:39:00,
2013-12-10 17:02:00,21.8,11.0,30.20,WSW,244,15.0,20.0,64,0.00,,,0.00,weatherlink.com 1.10,2013-12-10 22:02:00,
2013-12-10 17:10:00,21.7,11.0,30.20,WSW,249,11.0,21.0,64,0.00,,,0.00,weatherlink.com 1.10,2013-12-10 22:10:00,
2013-12-10 17:25:00,21.3,12.0,30.20,WSW,245,6.0,16.0,66,0.00,,,0.00,weatherlink.com 1.10,2013-12-10 22:25:00,
2013-12-10 17:40:00,20.9,11.0,30.21,SSW,205,14.0,18.0,67,0.00,,,0.00,weatherlink.com 1.10,2013-12-10 22:40:00,
2013-12-10 17:55:00,20.8,12.0,30.22,WSW,242,5.0,17.0,68,0.00,,,0.00,weatherlink.com 1.10,2013-12-10 22:55:00,
2013-12-10 18:10:00,20.5,12.0,30.22,West,259,9.0,15.0,70,0.00,,,0.00,weatherlink.com 1.10,2013-12-10 23:10:00,
2013-12-10 18:25:00,20.3,12.0,30.23,WSW,242,10.0,13.0,70,0.00,,,0.00,weatherlink.com 1.10,2013-12-10 23:25:00,
2013-12-10 18:41:00,20.2,12.0,30.24,WSW,250,13.0,16.0,71,0.00,,,0.00,weatherlink.com 1.10,2013-12-10 23:41:00,
2013-12-10 19:11:00,20.0,12.0,30.25,SW,235,17.0,19.0,70,0.00,,,0.00,weatherlink.com 1.10,2013-12-11 00:11:00,
2013-12-10 19:26:00,19.7,12.0,30.25,WSW,250,15.0,15.0,71,0.00,,,0.00,weatherlink.com 1.10,2013-12-11 00:26:00,
2013-12-10 19:41:00,19.2,11.0,30.25,SW,222,9.0,12.0,71,0.00,,,0.00,weatherlink.com 1.10,2013-12-11 00:41:00,
2013-12-10 20:11:00,18.3,11.0,30.25,WSW,248,8.0,10.0,72,0.00,,,0.00,weatherlink.com 1.10,2013-12-11 01:11:00,
2013-12-10 20:26:00,18.1,11.0,30.26,SW,235,7.0,11.0,72,0.00,,,0.00,weatherlink.com 1.10,2013-12-11 01:26:00,
2013-12-10 20:41:00,17.8,11.0,30.27,SW,235,6.0,6.0,73,0.00,,,0.00,weatherlink.com 1.10,2013-12-11 01:41:00,
2013-12-10 20:56:00,17.4,10.0,30.28,West,259,5.0,10.0,74,0.00,,,0.00,weatherlink.com 1.10,2013-12-11 01:56:00,
2013-12-10 21:11:00,17.3,9.0,30.29,SW,232,10.0,13.0,71,0.00,,,0.00,weatherlink.com 1.10,2013-12-11 02:11:00,
2013-12-10 21:26:00,17.2,8.0,30.31,West,262,11.0,16.0,68,0.00,,,0.00,weatherlink.com 1.10,2013-12-11 02:26:00,
2013-12-10 21:41:00,16.9,7.0,30.32,West,259,6.0,18.0,66,0.00,,,0.00,weatherlink.com 1.10,2013-12-11 02:41:00,
2013-12-10 21:57:00,16.6,7.0,30.32,WSW,256,5.0,15.0,65,0.00,,,0.00,weatherlink.com 1.10,2013-12-11 02:57:00,
2013-12-10 22:12:00,16.4,6.0,30.33,WSW,243,8.0,15.0,65,0.00,,,0.00,weatherlink.com 1.10,2013-12-11 03:12:00,
2013-12-10 22:42:00,16.4,6.0,30.32,SW,232,9.0,12.0,64,0.00,,,0.00,weatherlink.com 1.10,2013-12-11 03:42:00,
2013-12-10 22:57:00,16.4,7.0,30.32,WSW,248,7.0,10.0,66,0.00,,,0.00,weatherlink.com 1.10,2013-12-11 03:57:00,
2013-12-10 23:12:00,16.4,7.0,30.33,SW,228,4.0,10.0,67,0.00,,,0.00,weatherlink.com 1.10,2013-12-11 04:12:00,
2013-12-10 23:27:00,16.5,7.0,30.34,West,270,6.0,15.0,67,0.00,,,0.00,weatherlink.com 1.10,2013-12-11 04:27:00,
2013-12-10 23:42:00,16.6,8.0,30.34,WSW,242,4.0,9.0,68,0.00,,,0.00,weatherlink.com 1.10,2013-12-11 04:42:00,
2013-12-10 23:57:00,16.4,8.0,30.35,SW,233,5.0,11.0,68,0.00,,,0.00,weatherlink.com 1.10,2013-12-11 04:57:00,